El Kef
(Preview)
Off Topic
0
632
Hammam Mellegue , one of the world's largest geological sites will soon have its own spa resort. The region's hot mineral springs covered with a black clay layer rich in iridium (an extra terrestrial chemical element from a meteor) and a legacy of the Cretaceous - Tertiary extinction event, which is...
Asteroid 2008 CG
(Preview)
Solar System
0
455
Orbital elements: 2008 CG Earth MOID = 0.1245 AU Epoch 2008 Nov. 30.0 TT = JDT 2454800.5 MPC M 25.34129 (2000.0) P Q n 0.94578668 Peri. 230.87824 +0.95633141 -0.19548262 a 1.0278757 Node 139.03181 +0.22980127 +0.96227013 e 0.2516027 Incl. 19.35517 -0.18061451 +0.18926898 P 1.04 H 22.0 G 0.15 U 4 MP...
Asteroid 2009 BP58
(Preview)
Solar System
0
441
2009 BP58 = 9B060CD (NEOCPO) Orbital elements: 2009 BP58 Earth MOID = 0.1969 AU Epoch 2008 Nov. 30.0 TT = JDT 2454800.5 MPC M 237.77031 (2000.0) P Q n 0.60443170 Peri. 194.31147 +0.13666872 +0.96754909 a 1.3853874 Node 83.87234 -0.88656132 +0.21518428 e 0.4997517 Incl. 12.34247 -0.44196231 -0.1...
Asteroid 2009 BM58
(Preview)
Solar System
0
467
2009 BM58 = 9B8CFCF (NEOCPO) Orbital elements: 2009 BM58 Earth MOID = 0.0715 AU Epoch 2008 Nov. 30.0 TT = JDT 2454800.5 MPC M 348.50557 (2000.0) P Q n 0.24227180 Peri. 155.52776 -0.42791852 -0.90123474 a 2.5483993 Node 319.71289 +0.81086533 -0.34944465 e 0.5897926 Incl. 6.06118 +0.39922821 -0.2...
Asteroid 2009 BH58
(Preview)
Solar System
0
519
2009 BH58 = 9B6239C Orbital elements: 2009 BH58 Earth MOID = 0.0101 AU Epoch 2008 Nov. 30.0 TT = JDT 2454800.5 MPC M 337.24761 (2000.0) P Q n 0.34439168 Peri. 351.17309 -0.74867116 -0.66203588 a 2.0157389 Node 147.28757 +0.61208257 -0.71036240 e 0.5060826 Incl. 3.67513 +0.25464960 -0.23894297 P...
Asteroid 2009 BG58
(Preview)
Solar System
0
485
Orbital elements: 2009 BG58 Earth MOID = 0.0145 AU Epoch 2008 Nov. 30.0 TT = JDT 2454800.5 MPC M 343.99679 (2000.0) P Q n 0.33826132 Peri. 349.08300 -0.41179616 -0.90847787 a 2.0400203 Node 125.19756 +0.84252003 -0.40939602 e 0.5122683 Incl. 5.00960 +0.34725196 -0.08404085 P 2.91 H 26.0 G 0.15 U 6...
Asteroid 2009 BC58
(Preview)
Solar System
0
447
Orbital elements: 2009 BC58 Earth MOID = 0.1881 AU Epoch 2008 Nov. 30.0 TT = JDT 2454800.5 MPC M 36.09145 (2000.0) P Q n 0.31392530 Peri. 65.04990 +0.80022114 -0.59946340 a 2.1441336 Node 331.77232 +0.53642365 +0.72818367 e 0.4503477 Incl. 2.06250 +0.26813392 +0.33225317 P 3.14 H 18.6 G 0.15 U 8 MP...
WR142
(Preview)
Stars/galaxy News
0
570
Title: Discovery of X-ray Emission from the Wolf-Rayet star WR142 of oxygen subtype Authors: L. M. Oskinova, W.-R. Hamann, A. Feldmeier, R. Ignace, Y.-H. Chu We report the discovery of weak yet hard X-ray emission from the Wolf-Rayet (WR) star WR142 with the XMM-Newton X-ray telescope. Being of sp...
Molniya-3-46 Satellite Re-entry
(Preview)
Mission News
0
510
A Russian Molniya-3-46 satellite that was launched on August 23rd 1994 from the Plesetsk Cosmodrome LC43/4 is predicted to re-enter the Earths atmosphere on 1sth February 2009 @ 14:40 GMT ± 14 hours. TLE Data pre>MOLNIYA 3-46 1 23211U 94051A 09030.84189203 .15025383 19246-5 82339-3 5690 2 232...
January 2009
(
1 2 3 4
)
(Preview)
Events
30
20109
Astronomers expect the Quadrantid meteor shower to put on an especially good display before sunrise Jan. 3. The best time should be around 6 a.m., when you might spot dozens of meteors an hour. Because you don't need telescopes or other equipment, observing meteor showers is a great social activity...
Malaysian impact structures
(Preview)
Meteorite News
1
3160
Several impact structures have been recently discovered in pre-Tertiary Peninsular Malaysia. In the Langkawi islands three of four arcuate ridges are associated with cleaved quartz that crops out as a sill and dyke complex. Other shock-metamorphic features include ribbon quartz and mosaicis...
ASTROCAM network
(Preview)
Computers
2
844
The worlds first free, open access astronomical observatory officially opened Thanks to this remote-controlled observatory installed at the UPMs School of Computing anyone can study astronomy from their own home The Montegancedo Astronomical Observatory, based at the Universidad Politécn...
Albany meteor
(Preview)
Meteorite News
0
518
January 30, 1984 An unusually bright meteor streaked across the night sky, rumbling loudly as it scattered sparks. The shooting star was believed to be a bolide, a meteor that may have survived its torrid passage through Earth's atmosphere. [url=http://www.timesunion.com/AspStories/story...
Asteroid 2009 BE14
(Preview)
Solar System
0
431
Asteroid 2009 BE14 = SW40fh
9B8C810
(Preview)
Solar System
1
458
9B8C810 (NEOCPO) Ephemeris Date UT * R.A. (J2000) Decl. Elong. V h 2009 01 26 21 08 09 05.6 +21 38 17 172.7 18.8 2009 01 26 22 08 10 53.7 +20 37 12 173.4 18.6 2009 01 26 23 08 12 57.7 +19 26 01 174.1 18.4 2009 01 27 00 08 15 21.5 +18 02 03 174.6 18.2 2009 01 27 01 08 18 10.2 +16 21 43 174.8 18.0 2009 01 27 02 08 21 30.6 +14 20 01...
«First < 1
2164 2165 2166 2167 2168
2461 > Last» | Page
